Location: Bovenkerk
(52.2915°N, 4.8336°E)
Time: 05:50:15
(UTC+00:00)

Thor Agena Rocket - Pass Details

Date: 09 April 2020
Orbit: 760 x 807 km, 99.0° (Epoch: 29 May)

Event Time Altitude Azimuth Distance (km) Brightness Sun altitude
Rises 23:09:32 0° 12° (NNE) 3,242 7.8 -29.3°
Reaches altitude 10° 23:11:55 10° 5° (N) 2,315 6.9 -29.3°
Maximum altitude 23:16:42 43° 296° (WNW) 1,083 4.4 -29.4°
Enters shadow 23:16:58 42° 287° (WNW) 1,089 4.3 -29.4°
